Tracking 18957 objects as of 23-Jan-2018
HD Live streaming from Space Station
objects crossing your sky now

COSMOS 374

Track COSMOS 374 now!
10-day predictions
COSMOS 374 is classified as:


NORAD ID: 4594
Int'l Code: 1970-089A
Perigee: 543.6 km
Apogee: 2,035.1 km
Inclination: 62.9 °
Period: 111.2 minutes
Semi major axis: 7660 km
RCS: 0.5589 m2 (medium)
Launch date: October 23, 1970
Source: Commonwealth of Independent States (former USSR) (CIS)
Launch site: TYURATAM MISSILE AND SPACE COMPLEX (TTMTR)
aabbcc
Your satellite tracking list
Your tracking list is empty




NASA's NSSDC Master Catalog

Two Line Element Set (TLE):
1 04594U 70089A   18023.18836161 -.00000105  00000-0  21908-5 0  9996
2 04594  62.9366  14.3175 0973509 141.9286 225.4764 12.94889205271728
Source of the keplerian elements: AFSPC